AKDT,Max TemperatureF,Mean TemperatureF,Min TemperatureF,Max Dew PointF,MeanDew PointF,Min DewpointF,Max Humidity, Mean Humidity, Min Humidity, Max Sea Level PressureIn, Mean Sea Level PressureIn, Min Sea Level PressureIn, Max VisibilityMiles, Mean VisibilityMiles, Min VisibilityMiles, Max Wind SpeedMPH, Mean Wind SpeedMPH, Max Gust SpeedMPH,PrecipitationIn, CloudCover, Events, WindDirDegrees
2012-5-1,46,44,41,39,37,34,93,78,62,29.80,29.71,29.59,10,10,1,14,3,17,0.00,7,,207
2012-5-2,46,42,39,39,37,34,93,84,70,29.87,29.84,29.80,10,10,9,12,4,,0.00,8,,92
2012-5-3,46,40,35,39,36,34,93,82,62,29.86,29.81,29.78,10,10,2,10,2,,0.00,6,,227
2012-5-4,44,40,37,37,36,34,93,85,70,30.05,29.94,29.82,10,10,5,12,4,16,0.00,7,,145
2012-5-5,46,42,39,41,38,36,93,84,76,30.26,30.19,30.06,10,10,7,12,3,20,0.00,8,,90
2012-5-6,44,43,42,39,37,36,81,78,76,30.17,30.06,30.01,10,8,5,15,9,29,0.00,8,,111
2012-5-7,48,44,41,39,38,37,93,77,66,30.01,29.82,29.62,10,9,5,13,5,30,0.00,8,,124
2012-5-8,44,40,35,37,35,30,93,79,66,29.94,29.87,29.76,10,9,5,13,6,23,0.00,7,,148
2012-5-9,44,38,33,37,35,30,100,87,70,30.09,29.95,29.82,10,9,2,14,3,23,0.00,7,,59
2012-5-10,44,40,37,39,36,34,93,83,76,30.23,30.18,30.10,10,9,3,12,4,,0.03,7,,140
2012-5-11,42,42,41,39,37,36,87,82,76,30.19,30.16,30.11,10,8,5,13,4,26,1.31,8,,114
2012-5-12,42,42,41,37,37,36,87,80,76,30.12,30.09,30.06,10,7,4,14,8,24,1.52,8,,107
2012-5-13,46,42,37,39,37,32,93,79,61,30.42,30.30,30.11,10,10,6,10,4,,0.07,7,,176
2012-5-14,53,42,32,37,34,30,93,72,47,30.40,30.26,30.19,10,10,10,12,5,,0.00,3,,176
2012-5-15,46,40,33,36,33,27,93,78,46,30.27,30.24,30.21,10,9,1,10,5,,0.19,7,,235
2012-5-16,44,38,33,39,35,32,100,86,70,30.27,30.26,30.24,10,9,0,7,3,,0.08,7,,267
2012-5-17,50,46,41,39,37,36,87,74,58,30.23,30.15,30.09,10,10,10,13,6,16,0.00,7,,315
2012-5-18,48,44,41,43,39,37,93,81,71,30.13,30.11,30.09,10,10,10,7,2,,0.06,8,,87
2012-5-19,55,47,39,39,36,32,93,69,44,30.13,30.07,30.00,10,10,10,12,2,,0.00,6,,96
2012-5-20,50,46,42,45,40,36,93,79,66,29.99,29.86,29.73,10,10,10,8,2,,0.00,8,,69
2012-5-21,53,48,44,50,45,43,94,89,76,29.72,29.57,29.49,10,10,10,9,2,,0.00,8,,70
2012-5-22,55,50,44,46,41,37,93,71,51,29.81,29.75,29.61,10,10,10,13,3,,0.00,7,,175
2012-5-23,53,48,42,45,41,39,87,78,58,29.99,29.86,29.79,10,10,10,8,3,,0.00,5,,71
2012-5-24,57,48,39,45,42,36,93,75,59,30.19,30.11,29.99,10,10,10,12,5,,0.00,2,,71
2012-5-25,60,50,41,46,43,37,93,77,55,30.20,30.07,29.89,10,10,10,8,3,,0.00,3,,62
2012-5-26,53,50,46,46,44,39,100,83,62,29.88,29.80,29.77,10,9,4,12,3,18,0.00,8,,217
2012-5-27,53,48,44,45,43,41,93,85,67,29.98,29.90,29.78,10,10,5,8,3,,0.00,7,,249
2012-5-28,53,48,42,45,42,39,93,83,58,30.01,29.97,29.94,10,10,2,12,3,16,0.00,7,,168
2012-5-29,55,48,42,41,37,34,93,64,47,30.01,29.92,29.82,10,10,7,18,4,24,0.00,7,,126
2012-5-30,51,48,46,46,41,37,87,76,62,29.88,29.83,29.80,10,10,10,14,5,24,0.00,7,,110
2012-5-31,51,48,44,45,43,39,100,85,66,29.96,29.89,29.81,10,9,3,12,4,21,0.00,6,,157